{"data":{"norad_id":65170,"epoch":"2026-09-21T22:31:22.205280Z","epoch_age_seconds":41055,"freshness":"FRESH","line1":"1 65170U 25174G   26264.93845145  .00000016  00000+0  21990-5 0  9999","line2":"2 65170  86.4947 219.2033 0002254  73.2413 286.8968 13.24400366 53590","mean_motion":13.24400366,"eccentricity":0.0002254,"inclination_deg":86.4947,"raan_deg":219.2033,"arg_perigee_deg":73.2413,"mean_anomaly_deg":286.8968,"bstar":2.199e-6,"rev_number":5359,"period_min":108.72845077423,"perigee_km":1166.257890134,"apogee_km":1169.6596701117,"semimajor_km":7546.0957801229,"source":"CELESTRAK","updated_at":"2026-09-22T09:00:30.165059Z"}}